Lake Camanche Weather Center

Moon Phase Calendar



Lake Camanche Water Level
Online Cameras

 


      

Current Conditions in Camanche Village
10/2/2022 6:31:11 PM

77°F
Feels Like 77
Clear
Humidity
47%
Pressure
29.91"
Wind
5.9 mph (WNW)
Dew Point
55°F
UV Index
0/10 (Low)
Visibility
6 mi

Hourly Forecast

Date & Time Sun, Oct 2
6:00 PM
Sun, Oct 2
7:00 PM
Sun, Oct 2
8:00 PM
Sun, Oct 2
9:00 PM
Sun, Oct 2
10:00 PM
Sun, Oct 2
11:00 PM
Mon, Oct 3
12:00 AM
Mon, Oct 3
1:00 AM
Mon, Oct 3
2:00 AM
Mon, Oct 3
3:00 AM
Mon, Oct 3
4:00 AM
Mon, Oct 3
5:00 AM
Mon, Oct 3
6:00 AM
Mon, Oct 3
7:00 AM
Mon, Oct 3
8:00 AM
Mon, Oct 3
9:00 AM
Mon, Oct 3
10:00 AM
Mon, Oct 3
11:00 AM
Mon, Oct 3
12:00 PM
Mon, Oct 3
1:00 PM
Mon, Oct 3
2:00 PM
Mon, Oct 3
3:00 PM
Mon, Oct 3
4:00 PM
Mon, Oct 3
5:00 PM
Mon, Oct 3
6:00 PM
Mon, Oct 3
7:00 PM
Mon, Oct 3
8:00 PM
Mon, Oct 3
9:00 PM
Mon, Oct 3
10:00 PM
Mon, Oct 3
11:00 PM
Tue, Oct 4
12:00 AM
Tue, Oct 4
1:00 AM
Tue, Oct 4
2:00 AM
Tue, Oct 4
3:00 AM
Tue, Oct 4
4:00 AM
Tue, Oct 4
5:00 AM
Tue, Oct 4
6:00 AM
Tue, Oct 4
7:00 AM
Tue, Oct 4
8:00 AM
Tue, Oct 4
9:00 AM
Tue, Oct 4
10:00 AM
Tue, Oct 4
11:00 AM
Tue, Oct 4
12:00 PM
Tue, Oct 4
1:00 PM
Tue, Oct 4
2:00 PM
Tue, Oct 4
3:00 PM
Tue, Oct 4
4:00 PM
Tue, Oct 4
5:00 PM
Condition
Clear

Clear

Clear

Clear

Clear

Clear

Clear

Clear

Clear

Clear

Clear

Clear

Clear

Clear

Clear

Clear

Clear

Clear

Clear

Clear

Clear

Clear

Clear

Clear

Clear

Clear

Clear

Clear

Clear

Clear

Clear

Clear

Clear

Clear

Clear

Clear

Clear

Clear

Clear

Clear

Clear

Clear

Clear

Clear

Clear

Clear

Clear

Clear
Temperature 77°F77°F75°F71°F68°F63°F59°F58°F58°F58°F57°F56°F55°F55°F59°F65°F71°F76°F80°F84°F86°F87°F88°F87°F82°F73°F68°F65°F64°F64°F63°F62°F62°F61°F60°F59°F59°F58°F61°F67°F73°F78°F83°F86°F89°F90°F90°F89°F
Feels Like 77°F77°F74°F71°F67°F63°F58°F58°F57°F57°F56°F55°F55°F54°F58°F64°F70°F75°F80°F82°F84°F84°F85°F84°F81°F72°F66°F64°F63°F62°F62°F61°F60°F60°F59°F58°F58°F57°F60°F66°F72°F78°F81°F84°F86°F87°F87°F86°F
Cloudiness 0%0%0%0%0%0%0%0%0%0%0%0%0%0%0%0%0%0%0%0%0%0%0%0%0%0%0%0%0%0%0%0%0%0%0%0%0%0%1%4%8%8%7%8%7%7%5%4%
Visibility 6 mi6 mi6 mi6 mi6 mi6 mi6 mi6 mi6 mi6 mi6 mi6 mi6 mi6 mi6 mi6 mi6 mi6 mi6 mi6 mi6 mi6 mi6 mi6 mi6 mi6 mi6 mi6 mi6 mi6 mi6 mi6 mi6 mi6 mi6 mi6 mi6 mi6 mi6 mi6 mi6 mi6 mi6 mi6 mi6 mi6 mi6 mi6 mi
Precipitation 0%0%0%0%0%0%0%0%0%0%0%0%0%0%0%0%0%0%0%0%0%0%0%0%0%0%0%0%0%0%0%0%0%0%0%0%0%0%0%0%0%0%0%0%0%0%0%0%
Humidity 45%47%49%53%60%68%77%79%79%80%81%84%86%87%77%60%49%42%36%32%29%27%26%26%30%40%51%58%59%59%59%60%60%62%66%68%70%72%67%55%45%37%31%28%25%23%22%23%
Dew Point 54°F55°F54°F53°F53°F53°F51°F51°F51°F51°F51°F51°F51°F50°F51°F51°F50°F50°F51°F50°F50°F49°F48°F47°F48°F47°F49°F49°F49°F49°F48°F48°F47°F48°F48°F48°F48°F48°F49°F50°F50°F50°F49°F49°F48°F47°F47°F46°F
Pressure 29.91"29.91"29.91"29.91"29.94"29.97"29.97"29.97"29.97"29.97"29.97"30"30"30.03"30.03"30.03"30.03"30.03"30"29.97"29.94"29.94"29.91"29.91"29.91"29.94"29.94"29.97"29.97"29.97"29.97"29.97"29.97"29.97"29.97"29.97"29.97"29.97"30"30"29.97"29.97"29.94"29.94"29.91"29.88"29.88"29.85"
Wind Speed 6.8 mph5.9 mph4.5 mph3.8 mph3.1 mph3 mph2.6 mph3.2 mph3 mph2.7 mph1.5 mph1.4 mph1.4 mph0.6 mph0.7 mph2.6 mph3.4 mph5.1 mph5.4 mph5.9 mph6.3 mph6.7 mph7 mph6.9 mph5.1 mph5.3 mph4 mph2.8 mph3.6 mph3.6 mph3.7 mph3.2 mph2.8 mph2.8 mph3.3 mph3.3 mph3.2 mph3 mph2.7 mph2.7 mph3.3 mph4.1 mph4.8 mph4.8 mph5 mph5.2 mph5.8 mph6.6 mph
Wind
Direction
297°
WNW
303°
WNW
318°
NW
342°
NNW
339°
NNW
343°
NNW
352°
N
15°
NNE
24°
NNE
23°
NNE

N
309°
NW
302°
WNW
309°
NW
280°
W
284°
WNW
286°
WNW
288°
WNW
294°
WNW
298°
WNW
299°
WNW
301°
WNW
306°
NW
308°
NW
301°
WNW
291°
WNW
299°
WNW

N
33°
NNE
29°
NNE
25°
NNE
38°
NE
36°
NE
12°
NNE

N

N
355°
N
342°
NNW
332°
NNW
312°
NW
285°
WNW
272°
W
279°
W
286°
WNW
293°
WNW
297°
WNW
306°
NW
312°
NW

Daily Forecast

Date High Low Precip. Humidity
Today
Oct 2

Clear
81 °F
56 °F
0%
45%
Monday
Oct 3

Clear
88 °F
55 °F
0%
36%
Tuesday
Oct 4

Clear
89 °F
58 °F
0%
37%
Wednesday
Oct 5

Clear
92 °F
62 °F
0%
29%
Thursday
Oct 6

Clear
94 °F
66 °F
0%
24%
Friday
Oct 7

Clear
95 °F
66 °F
0%
19%
Saturday
Oct 8

Clear
95 °F
68 °F
0%
20%
Sunday
Oct 9

Clear
90 °F
63 °F
0%
25%
Monday
Oct 10

Clear
86 °F
57 °F
4%
36%
Tuesday
Oct 11

Clear
85 °F
56 °F
0%
37%
Wednesday
Oct 12

Clear
85 °F
58 °F
0%
40%
Thursday
Oct 13

Clouds
81 °F
58 °F
0%
37%
Friday
Oct 14

Clear
79 °F
56 °F
0%
43%
Saturday
Oct 15

Clouds
82 °F
57 °F
0%
38%
Sunday
Oct 16

Clear
87 °F
60 °F
0%
29%
Monday
Oct 17

Clouds
85 °F
59 °F
0%
37%

Temperature 8-14 Day Outlook



Precipitation 8-14 Day Outlook




Quick Links
Lake Camanche News
Lake Camanche Photos
Lake Camanche Videos




About Us
Contact Us
Site Map
Search Site
Advertise With Us
   
Camanche.USLakes.info
THE LAKE CAMANCHE WEBSITE

Copyright 2022, Lakes Online
Privacy    |    Legal